Flag for Russia Weather past 2 weeks in Syktyvkar, Russia

Now
61 °F

Sprinkles. Partly sunny.


Feels Like: 61 °F
Forecast: 52 / 66 °F
Wind: 6 mph from North

Location: Syktyvkar Airport

Current Time: Aug 5, 2015 at 12:35:40 PM

Latest Report: Aug 5, 2015 at 12:00 PM


Visibility: 4 mi

Pressure: 29.83 "Hg

Humidity: 88%

Dew point: 57 °F

Location of SyktyvkarLocation

Historic Weather in Syktyvkar — Graph

°F

Syktyvkar temperature yesterday

Maximum temperature yesterday: 63 °F (at 12:30 PM)
Minimum temperature yesterday: 50 °F (at 12:30 AM)
Average temperature yesterday: 56 °F

Past Weeks' High & Low Weather Summary

 TemperatureHumidityPressure
High73 °F (Jul 28, 4:30 PM)100% (Jul 28, 4:00 AM)29.95 "Hg (Jul 28, 4:00 AM)
Low41 °F (Jul 24, 1:30 AM)31% (Jul 26, 3:30 PM)29.39 "Hg (Jul 21, 3:30 PM)
Average60 °F78%29.70 "Hg
* Reported Jul 21 11:00 AM — Aug 5 11:00 AM, Syktyvkar, Weather by CustomWeather, © 2015

Note: Actual official high and low records may vary slightly from our data, if they occured in-between our weather recording intervals... More about our weather records

Advertising

Syktyvkar weather history for previous 24 hours

 ConditionsComfort  
Time TempWeatherWind HumidityBarometerVisibility
11:00 AM
Wed, Aug 5
59 °FBroken clouds.6 mph94%29.83 "HgN/A
10:30 AM59 °FBroken clouds.3 mph88%29.83 "Hg4 mi
10:00 AM59 °FSprinkles. Broken clouds.3 mph88%29.80 "Hg2 mi
9:30 AM57 °FSprinkles. Broken clouds.6 mph94%29.80 "Hg4 mi
9:00 AM57 °FSprinkles. Broken clouds.6 mph94%29.80 "Hg4 mi
8:30 AM57 °FSprinkles. Broken clouds.3 mph88%29.77 "Hg5 mi
8:00 AM55 °FSprinkles. Broken clouds.6 mph94%29.77 "HgN/A
7:30 AM55 °FSprinkles. Broken clouds.3 mph94%29.77 "HgN/A
7:00 AM55 °FSprinkles. Broken clouds.1 mph94%29.77 "Hg5 mi
6:00 AM55 °FSprinkles. Broken clouds.1 mph88%29.74 "Hg2 mi
5:30 AM55 °FSprinkles. Broken clouds.3 mph88%29.74 "Hg4 mi
5:00 AM55 °FSprinkles. Broken clouds.3 mph88%29.74 "Hg6 mi
4:30 AM55 °FSprinkles. Broken clouds.6 mph88%29.74 "Hg6 mi
4:00 AM54 °FSprinkles. Partly cloudy.3 mph94%29.74 "Hg2 mi
3:30 AM55 °FSprinkles. Partly cloudy.3 mph88%29.74 "Hg4 mi
3:00 AM55 °FSprinkles. Partly cloudy.6 mph88%29.74 "Hg6 mi
2:30 AM55 °FPartly cloudy.3 mph88%29.74 "HgN/A
2:00 AM55 °FPassing clouds.6 mph88%29.74 "HgN/A
1:00 AM55 °FSprinkles. Partly cloudy.3 mph88%29.74 "Hg4 mi
12:30 AM55 °FPassing clouds.3 mph88%29.74 "HgN/A
12:00 AM55 °FPassing clouds.3 mph88%29.74 "HgN/A
11:30 PM
Tue, Aug 4
55 °FSprinkles. Passing clouds.6 mph88%29.74 "HgN/A
11:00 PM55 °FSprinkles. Partly cloudy.6 mph88%29.74 "Hg6 mi
10:30 PM55 °FSprinkles. Passing clouds.8 mph94%29.74 "HgN/A
10:00 PM55 °FPassing clouds.6 mph94%29.74 "HgN/A
9:30 PM57 °FSprinkles. Passing clouds.6 mph88%29.74 "Hg6 mi
9:00 PM57 °FSprinkles. Scattered clouds.6 mph88%29.74 "Hg6 mi
8:30 PM57 °FScattered clouds.8 mph88%29.74 "HgN/A
8:00 PM57 °FScattered clouds.8 mph88%29.74 "HgN/A
7:30 PM59 °FScattered clouds.3 mph82%29.74 "HgN/A
7:00 PM59 °FPassing clouds.3 mph82%29.74 "HgN/A
6:30 PM59 °FPassing clouds.6 mph82%29.74 "HgN/A
6:00 PM59 °FScattered clouds.8 mph82%29.74 "HgN/A
5:00 PM59 °FPartly sunny.8 mph82%29.74 "HgN/A
4:30 PM59 °FPartly sunny.8 mph82%29.74 "HgN/A
4:00 PM59 °FPartly sunny.6 mph82%29.74 "Hg6 mi
3:30 PM61 °FSprinkles. Broken clouds.3 mph83%29.74 "Hg4 mi
3:00 PM59 °FBroken clouds.6 mph88%29.74 "HgN/A
2:30 PM59 °FSprinkles. Broken clouds.6 mph88%29.74 "HgN/A
2:00 PM57 °FSprinkles. Partly sunny.8 mph88%29.74 "Hg4 mi
1:30 PM63 °FPartly sunny.8 mph73%29.74 "HgN/A
1:00 PM61 °FPartly sunny.6 mph77%29.74 "Hg6 mi
12:30 PM63 °FPartly sunny.6 mph73%29.74 "HgN/A
12:00 PM59 °FPartly sunny.6 mph77%29.74 "HgN/A
Weather by CustomWeather, © 2015

See weather overviewHow to use our weather pages